Location: Unspecified
(0.0000°N, 0.0000°E)
Time: 17:02:23
(UTC+00:00)

Vanguard 3 - Pass Details

Date: 05 February 2023
Orbit: 509 x 3249 km, 33.3° (Epoch: 20 March)

Event Time Altitude Azimuth Distance (km) Brightness Sun altitude
Rises 05:17:08 0° 274° (W) 7,080 - -13.6°
Exits shadow 05:22:53 - 263° (W) 5,966 11.0 -12.3°
Reaches altitude 10° 05:23:53 10° 261° (W) 5,777 10.9 -12.0°
Maximum altitude 05:35:41 23° 216° (SW) 3,975 10.5 -9.2°
Drops below altitude 10° 05:44:18 10° 169° (SSE) 4,078 11.1 -7.1°
Sets 05:48:02 0° 153° (SSE) 4,638 11.7 -6.2°
